Date String (YYYY-MM-DD hh:mm:ss) UTC,Instrument flags,Ambient pressure (hPa),Sample flow (lpm),Bypass flow (lpm),Sample temperature (°C),Ambient temperature (°C),ASC tube jacket temperature (°C),LED temperature (°C),Box temperature (°C),Sample RH (%),Span deviation,Mass concentration (μg/m³),Mass concentration (μg/m³),Mass concentration (μg/m³)
DateTimeUTC,F1_M11,P_M11,Q1_M11,Q2_M11,T1_M11,T2_M11,T3_M11,T4_M11,T5_M11,U1_M11,ZSPAN_M11,X0_M11,X2_M11,X1_M11
2023-01-31 22:00:00,,0823.4,5.02,0.00,24.3,22.9,00.0,33.1,26.0,06.3,-000.5,0017.60,0009.04,0008.29
2023-01-31 22:01:00,,0823.4,4.98,0.00,24.3,22.9,00.0,33.1,26.1,06.2,-000.4,0016.87,0009.00,0008.27
2023-01-31 22:02:00,,0823.4,5.01,0.00,24.3,22.9,00.0,33.1,26.1,06.3,-000.0,0016.96,0009.00,0008.25
2023-01-31 22:03:00,,0823.5,5.00,0.00,24.3,22.9,00.0,33.1,26.0,06.2,-000.2,0017.49,0008.93,0008.22
2023-01-31 22:04:00,,0823.5,5.00,0.00,24.3,22.9,00.0,33.1,26.1,06.2,-000.3,0017.93,0008.88,0008.18
2023-01-31 22:05:00,,0823.4,5.00,0.00,24.3,22.9,00.0,33.1,26.1,06.1,-000.5,0017.57,0008.84,0008.14
2023-01-31 22:06:00,,0823.4,5.02,0.00,24.3,22.9,00.0,33.1,26.1,05.8,-000.4,0017.19,0008.75,0008.04
2023-01-31 22:07:00,,0823.5,5.00,0.00,24.3,23.0,00.0,33.1,26.1,05.9,0000.2,0016.90,0008.62,0007.95
2023-01-31 22:08:00,,0823.5,4.97,0.00,24.3,23.0,00.0,33.1,26.1,06.0,0000.2,0016.33,0008.56,0007.91
2023-01-31 22:09:00,,0823.5,5.00,0.00,24.3,23.0,00.0,33.1,26.2,06.1,0000.1,0015.15,0008.47,0007.85
2023-01-31 22:10:00,,0823.5,5.01,0.00,24.3,23.0,00.0,33.1,26.2,06.4,-000.4,0015.11,0008.46,0007.85
2023-01-31 22:11:00,,0823.5,5.01,0.00,24.3,23.0,00.0,33.1,26.1,06.4,-001.5,0015.18,0008.48,0007.86
2023-01-31 22:12:00,,0823.6,5.00,0.00,24.3,23.0,00.0,33.1,26.1,05.9,-001.9,0014.96,0008.38,0007.79
2023-01-31 22:13:00,,0823.7,5.03,0.00,24.3,23.0,00.0,33.1,26.1,05.7,-002.2,0014.47,0008.20,0007.64
2023-01-31 22:14:00,,0823.6,5.02,0.00,24.3,23.0,00.0,33.1,26.1,05.8,-002.6,0014.06,0008.05,0007.50
2023-01-31 22:15:00,,0823.6,5.02,0.00,24.3,23.0,00.0,33.1,26.1,06.3,-002.2,0013.74,0008.00,0007.46
2023-01-31 22:16:00,,0823.6,4.98,0.00,24.3,23.0,00.0,33.1,26.1,06.5,-001.8,0013.88,0008.04,0007.50
2023-01-31 22:17:00,,0823.5,5.00,0.00,24.3,23.0,00.0,33.1,26.1,06.3,-001.9,0013.97,0008.11,0007.58
2023-01-31 22:18:00,,0823.5,5.00,0.00,24.3,23.0,00.0,33.1,26.1,06.2,-001.9,0013.90,0008.22,0007.68
2023-01-31 22:19:00,,0823.5,5.00,0.00,24.3,23.0,00.0,33.1,26.1,06.2,-001.7,0014.40,0008.25,0007.72
2023-01-31 22:20:00,,0823.5,5.00,0.00,24.3,23.0,00.0,33.1,26.1,06.3,-001.7,0015.56,0008.34,0007.79
2023-01-31 22:21:00,,0823.5,4.95,0.00,24.3,23.0,00.0,33.1,26.1,06.4,-001.4,0015.37,0008.35,0007.82
2023-01-31 22:22:00,,0823.4,5.00,0.00,24.3,23.0,00.0,33.1,26.1,06.2,-000.8,0015.29,0008.30,0007.80
2023-01-31 22:23:00,,0823.4,5.03,0.00,24.3,23.0,00.0,33.1,26.1,06.1,-000.6,0015.95,0008.32,0007.79
2023-01-31 22:24:00,,0823.4,4.99,0.00,24.3,23.0,00.0,33.2,26.1,06.0,-000.8,0016.36,0008.42,0007.87
2023-01-31 22:25:00,,0823.4,5.01,0.00,24.3,23.0,00.0,33.2,26.2,06.1,-000.5,0016.49,0008.55,0007.97
2023-01-31 22:26:00,,0823.5,5.00,0.00,24.4,23.0,00.0,33.2,26.2,06.3,-000.3,0016.45,0008.69,0008.09
2023-01-31 22:27:00,,0823.6,5.01,0.00,24.4,23.0,00.0,33.2,26.2,06.2,-000.3,0016.23,0008.70,0008.10
2023-01-31 22:28:00,,0823.5,4.99,0.00,24.4,23.0,00.0,33.2,26.1,06.1,0000.0,0015.89,0008.65,0008.06
2023-01-31 22:29:00,,0823.4,5.01,0.00,24.4,23.0,00.0,33.2,26.1,05.9,-000.5,0016.00,0008.66,0008.03
2023-01-31 22:30:00,,0823.5,4.98,0.00,24.3,23.0,00.0,33.2,26.1,05.8,-000.9,0015.59,0008.67,0007.97
2023-01-31 22:31:00,,0823.6,4.98,0.00,24.4,23.0,00.0,33.2,26.1,05.8,-000.9,0014.69,0008.58,0007.88
2023-01-31 22:32:00,,0823.6,4.96,0.00,24.3,23.0,00.0,33.2,26.1,05.7,-000.7,0014.99,0008.48,0007.77
2023-01-31 22:33:00,,0823.5,5.00,0.00,24.4,23.0,00.0,33.2,26.2,05.6,-000.9,0015.06,0008.40,0007.66
2023-01-31 22:34:00,,0823.5,4.99,0.00,24.4,23.0,00.0,33.2,26.2,05.7,-000.8,0015.16,0008.36,0007.59
2023-01-31 22:35:00,,0823.5,5.01,0.00,24.4,23.0,00.0,33.2,26.2,05.7,-000.6,0015.23,0008.31,0007.54
2023-01-31 22:36:00,,0823.6,5.01,0.00,24.4,23.0,00.0,33.2,26.2,05.7,-000.4,0015.45,0008.22,0007.47
2023-01-31 22:37:00,,0823.6,5.00,0.00,24.4,23.0,00.0,33.2,26.2,05.6,-000.3,0015.23,0008.04,0007.32
2023-01-31 22:38:00,,0823.6,4.98,0.00,24.4,23.0,00.0,33.2,26.2,06.1,-000.1,0015.27,0007.94,0007.23
2023-01-31 22:39:00,,0823.5,4.98,0.00,24.4,23.0,00.0,33.2,26.3,06.4,0000.4,0015.89,0007.98,0007.26
2023-01-31 22:40:00,,0823.5,5.00,0.00,24.4,23.0,00.0,33.2,26.3,06.4,0001.3,0015.82,0007.99,0007.32
2023-01-31 22:41:00,,0823.5,4.99,0.00,24.4,23.0,00.0,33.2,26.2,06.5,0001.6,0015.82,0008.03,0007.41
2023-01-31 22:42:00,,0823.6,4.98,0.00,24.4,23.0,00.0,33.2,26.2,06.0,0001.9,0016.32,0008.08,0007.43
2023-01-31 22:43:00,,0823.6,4.98,0.00,24.4,23.0,00.0,33.2,26.2,05.8,0001.2,0017.67,0008.06,0007.42
2023-01-31 22:44:00,,0823.6,4.99,0.00,24.4,23.0,00.0,33.2,26.3,06.0,0001.1,0018.20,0008.07,0007.44
2023-01-31 22:45:00,,0823.7,5.02,0.00,24.4,23.0,00.0,33.2,26.3,06.2,0000.9,0017.77,0008.09,0007.47
2023-01-31 22:46:00,,0823.7,5.01,0.00,24.4,23.0,00.0,33.2,26.3,06.5,0000.9,0017.76,0008.19,0007.58
2023-01-31 22:47:00,,0823.7,5.00,0.00,24.4,23.1,00.0,33.2,26.3,06.4,0000.8,0017.52,0008.36,0007.72
2023-01-31 22:48:00,,0823.6,5.01,0.00,24.4,23.1,00.0,33.2,26.3,05.9,0000.9,0017.70,0008.44,0007.77
2023-01-31 22:49:00,,0823.7,5.04,0.00,24.4,23.1,00.0,33.2,26.3,05.7,0000.3,0017.44,0008.43,0007.73
2023-01-31 22:50:00,,0823.7,5.01,0.00,24.4,23.1,00.0,33.2,26.3,05.7,0000.2,0017.34,0008.33,0007.61
2023-01-31 22:51:00,,0823.7,4.99,0.00,24.4,23.1,00.0,33.2,26.3,05.6,-000.1,0017.75,0008.21,0007.48
2023-01-31 22:52:00,,0823.7,5.00,0.00,24.4,23.1,00.0,33.2,26.3,05.6,-000.0,0017.80,0008.07,0007.36
2023-01-31 22:53:00,,0823.6,4.99,0.00,24.4,23.1,00.0,33.2,26.3,05.7,-000.3,0017.11,0008.01,0007.32
2023-01-31 22:54:00,,0823.5,4.98,0.00,24.4,23.0,00.0,33.2,26.3,05.9,0000.0,0015.56,0008.02,0007.35
2023-01-31 22:55:00,,0823.4,4.99,0.00,24.4,22.9,00.0,33.2,26.2,06.1,0000.1,0014.95,0008.04,0007.40
2023-01-31 22:56:00,,0823.7,4.99,0.00,24.4,22.8,00.0,33.2,26.2,06.2,0000.5,0014.58,0008.04,0007.40
2023-01-31 22:57:00,,0823.7,5.00,0.00,24.4,22.8,00.0,33.2,26.2,06.3,0000.9,0015.09,0008.01,0007.34
2023-01-31 22:58:00,,0823.7,5.03,0.00,24.4,22.9,00.0,33.2,26.2,06.4,0001.0,0015.19,0007.94,0007.24
2023-01-31 22:59:00,,0823.7,5.00,0.00,24.3,22.9,00.0,33.2,26.2,06.3,0000.3,0015.23,0007.95,0007.26
